Argentia, Canada

1:47 AM NDT on August 19, 2017 (GMT -0230)
Argentia

Weather History for CWAR - December, 2013

Change the Weather History Date:

Wednesday, December 4, 2013

  Actual Average Record
Temperature  
Mean Temperature 46 °F -  
Max Temperature 54 °F - - ()
Min Temperature 38 °F - - ()
Degree Days  
Heating Degree Days 19    
Moisture  
Dew Point 45 °F    
Average Humidity 89    
Maximum Humidity 96    
Minimum Humidity 80    
Precipitation  
Precipitation 0.20 in - - ()
Sea Level Pressure  
Sea Level Pressure 29.45 in    
Wind  
Wind Speed 25 mph ()    
Max Wind Speed 44 mph    
Max Gust Speed 59 mph    
T = Trace of Precipitation, MM = Missing Value Source: Averaged Metar Reports

Daily Weather History Graph

Daily Weather History Graph

Search for Another Location

Airport or City:

Trip Planner

Search our weather history database for the weather conditions in past years. The results will help you decide how hot, cold, wet, or windy it might be!

Date:

Astronomy

Dec. 04, 2013 Rise Set
Actual Time 7:35 AM NST 4:16 PM NST
Civil Twilight 7:00 AM NST 4:51 PM NST
Nautical Twilight 6:22 AM NST 5:30 PM NST
Astronomical Twilight 5:45 AM NST 6:07 PM NST
Moon 8:55 AM NST (12/4) 6:23 PM NST (12/4)
Length of Visible Light 9h 51m
Length of Day
8h 40m
Waxing Crescent, 4% of the Moon is Illuminated
Dec 4
Waxing Crescent
Dec 9
First Quarter
Dec 17
Full
Dec 25
Last Quarter
Jan 1
New

Hourly Weather History & Observations

Time (NST) Temp. Windchill Dew Point Humidity Pressure Visibility Wind Dir Wind Speed Gust Speed Precip Events Conditions
12:30 AM 52.7 °F - 50.7 °F 93% 29.78 in - SE 20.7 mph 28.8 mph N/A   Unknown
1:30 AM 53.6 °F - 51.8 °F 94% 29.73 in - SE 23.0 mph 34.5 mph 0.03 in   Unknown
2:30 AM 53 °F - 51 °F 91% 29.70 in - SE 23.0 mph - -  
2:30 AM 53.1 °F - 51.1 °F 93% 29.70 in - SE 23.0 mph 31.1 mph N/A   Unknown
3:30 AM 52.3 °F - 50.5 °F 94% 29.64 in - SE 26.5 mph 33.4 mph N/A   Unknown
4:30 AM 52.7 °F - 51.1 °F 94% 29.57 in - SE 24.2 mph 31.1 mph 0.05 in   Unknown
5:30 AM 53 °F - 52 °F 95% 29.51 in - SE 25.3 mph - -  
5:30 AM 53.4 °F - 52.0 °F 95% 29.51 in - SE 25.3 mph 36.8 mph N/A   Unknown
6:30 AM 54.0 °F - 52.2 °F 94% 29.48 in - SE 23.0 mph 35.7 mph 0.05 in   Unknown
7:30 AM 53.6 °F - 51.8 °F 94% 29.39 in - SE 20.7 mph 27.6 mph 0.03 in   Unknown
8:30 AM 53 °F - 51 °F 89% 29.38 in - SSE 28.8 mph - -  
8:30 AM 52.7 °F - 50.7 °F 93% 29.38 in - SSE 28.8 mph 38.0 mph 0.08 in   Unknown
9:30 AM 52.5 °F - 50.5 °F 93% 29.39 in - SSE 23.0 mph 34.5 mph N/A   Unknown
10:30 AM 52.0 °F - 49.6 °F 92% 29.42 in - SSW 24.2 mph 32.2 mph N/A   Unknown
11:30 AM 51 °F - 47 °F 80% 29.41 in - SSW 24.2 mph - -  
11:30 AM 50.5 °F - 46.6 °F 86% 29.41 in - SSW 24.2 mph 29.9 mph N/A   Unknown
12:30 PM 48.2 °F - 43.7 °F 84% 29.40 in - SSW 24.2 mph 32.2 mph N/A   Unknown
1:30 PM 49.8 °F - 44.1 °F 81% 29.38 in - South 26.5 mph 42.6 mph N/A   Unknown
2:30 PM 46 °F - 42 °F 82% 29.37 in - SSW 31.1 mph - -  
2:30 PM 46.0 °F 36.5 °F 42.3 °F 87% 29.37 in - SSW 31.1 mph 41.4 mph N/A   Unknown
3:30 PM 43.3 °F 32.3 °F 39.4 °F 86% 29.36 in - SSW 34.5 mph 42.6 mph N/A   Unknown
4:30 PM 41.9 °F 30.0 °F 37.4 °F 84% 29.35 in - SSW 36.8 mph 46.0 mph N/A   Unknown
5:30 PM 41 °F - 38 °F 84% 29.34 in - SSW 38.0 mph - -  
5:30 PM 41.4 °F 29.1 °F 37.8 °F 87% 29.34 in - SSW 38.0 mph 49.5 mph N/A   Unknown
6:30 PM 40.1 °F 27.5 °F 37.9 °F 92% 29.36 in - SSW 36.8 mph 50.6 mph 0.02 in   Unknown
7:30 PM 40.3 °F 27.8 °F 36.5 °F 86% 29.36 in - SSW 36.8 mph 49.5 mph N/A   Unknown
8:30 PM 40 °F - 36 °F 81% 29.36 in - SSW 40.3 mph - -  
8:30 PM 39.6 °F 26.3 °F 36.1 °F 88% 29.36 in - SSW 40.3 mph 54.1 mph N/A   Unknown
9:30 PM 39.0 °F 25.1 °F 35.2 °F 86% 29.37 in - SSW 43.7 mph 58.7 mph 0.03 in   Unknown
10:30 PM 38.7 °F 24.9 °F 36.1 °F 91% 29.37 in - SSW 41.4 mph 56.4 mph N/A   Unknown
11:30 PM 39 °F - 38 °F 92% 29.40 in - SW 41.4 mph - -  
11:30 PM 38.7 °F 24.9 °F 37.6 °F 96% 29.40 in - SW 41.4 mph 58.7 mph N/A   Unknown